Location: Pl�tzky
(52.0521°N, 11.8020°E)
Time: 02:20:32
(UTC+00:00)

ATLAS 3B R/B - Pass Details

Date: 22 November 2019
Orbit: 1030 x 1165 km, 63.8° (Epoch: 03 December)

Event Time Altitude Azimuth Distance (km) Brightness Sun altitude
Rises 19:07:03 0° 314° (NW) 3,795 6.3 -35.3°
Reaches altitude 10° 19:09:39 10° 314° (NW) 2,845 5.5 -35.7°
Enters shadow 19:14:36 52° 301° (WNW) 1,278 3.2 -36.5°
